Regional Weather Roundup
Issued by NWS

Home | Current Version | Previous Version | Graphics & Text | Print | Product List | Glossary On
Versions: 1 2 3 4 5 6 7 8 9 10 11 12 13 14 15 16 17 18 19 20 21 22 23 24 25 26 27 28 29 30 31 32 33 34 35 36 37 38 39 40 41 42 43 44 45 46 47 48 49 50
000
ASUS43 KIND 172309
RWRIN

WEATHER ROUNDUP FOR INDIANA
NATIONAL WEATHER SERVICE INDIANAPOLIS IN
600 PM EST SUN DEC 17 2017

NOTE: "FAIR" INDICATES FEW OR NO CLOUDS BELOW 12,000 FEET WITH NO
SIGNIFICANT WEATHER AND/OR OBSTRUCTIONS TO VISIBILITY.

* - STATION DOES NOT REPORT WEATHER SUCH AS PRECIPITATION OR FOG.

+ - STATION NOT QUALITY CONTROLLED BY THE NATIONAL WEATHER SERVICE.
    USE DATA WITH CAUTION...ESPECIALLY DEWPOINT AND RELATIVE
    HUMIDITY OBSERVATIONS.

INZ001>003-010>013-019-020-180000-
NORTHWEST INDIANA

CITY           SKY/WX    TMP DP  RH WIND       PRES   REMARKS
GARY /AIRPORT/ CLOUDY    46  32  57 VRB5      30.00R
KNOX *+        CLOUDY    41  34  75 SW3       30.01R
LA PORTE +     CLOUDY    39  34  82 SW6       30.01R WCI  35
MICHIGAN CITY+ CLOUDY    41  32  70 S6        30.01R
MONTICELLO +   CLOUDY    42  34  75 S5        30.02S
RENSSELAER +   CLOUDY    43  32  65 S5        30.02R
VALPARAISO     CLOUDY    42  35  76 S5        30.01R

$$

LMZ046-743>745-180000-
SOUTHERN LAKE MICHIGAN

STATION/POSITION TIME  TEMP    WIND        PRES    WAVE
                       AIR SEA DIR/SP/G            HT
                 (UTC) (F)     (DEG/KT/KT) (MB)    (FT)
BURNS HARBOR     2240   44     190/  9/ 11 1015.9S
MICHIGAN CITY    2240   43     160/ 10/ 12   N/A

$$

INZ004-005-014>016-021>024-180000-
NORTH CENTRAL INDIANA

CITY           SKY/WX    TMP DP  RH WIND       PRES   REMARKS
ELKHART        CLOUDY    37  32  81 S5        30.01R WCI  34
GOSHEN         CLOUDY    38  32  79 SE6       30.01S WCI  33
LOGANSPORT +   CLOUDY    36  34  93 S7        30.04R WCI  30
PERU/GRISSOM   CLOUDY    39  39 100 S6        30.02F WCI  35
ROCHESTER +    CLOUDY    41  36  81 S7        30.03R
SOUTH BEND     CLOUDY    36  33  89 SE5       30.01S WCI  32
WARSAW +       CLOUDY    39  34  81 CALM      30.02S

$$

INZ006>009-017-018-025>027-180000-
NORTHEAST INDIANA

CITY           SKY/WX    TMP DP  RH WIND       PRES   REMARKS
AUBURN +       CLOUDY    36  32  87 CALM      30.03F
FORT WAYNE     CLOUDY    38  36  92 S7        30.03F WCI  33
HUNTINGTON +   CLOUDY    38  36  92 CALM      30.03F
KENDALLVILLE + CLOUDY    34  32  91 S5        30.02F WCI  30

$$

INZ028-029-035-036-043>045-051>053-180000-
WEST CENTRAL INDIANA

CITY           SKY/WX    TMP DP  RH WIND       PRES   REMARKS
CRAWFORDSVL +  CLOUDY    39  38  94 S6        30.05S WCI  35
GREENCASTLE +  CLOUDY    43  36  75 CALM      30.06S
LAFAYETTE      CLOUDY    43  38  82 S5        30.04R
TERRE HAUTE    PTCLDY    43  37  79 S8        30.06S

$$

INZ030>032-037>040-046>048-054>057-064-065-180000-
CENTRAL INDIANA

CITY           SKY/WX    TMP DP  RH WIND       PRES   REMARKS
COLUMBUS       CLOUDY    43  32  65 CALM      30.09R
FRANKFORT +    CLOUDY    43  39  85 S6        30.06S
GREENWOOD *+   CLOUDY    45  40  82 S7        30.07R
INDIANAPOLIS   CLOUDY    42  38  85 S9        30.07R
-EAGLE CREEK   CLOUDY    42  38  85 CALM      30.06R
KOKOMO +       CLOUDY    39  36  89 S8        30.05R WCI  33
MARION +       CLOUDY    38  36  91 S10       30.05R WCI  31
MT COMFORT *+  CLOUDY    39  39 100 SW7       30.07R WCI  34
SHELBYVILLE    CLOUDY    43  34  70 S9        30.07R
ZIONSVILLE +   CLOUDY    40  37  92 S6        30.06S WCI  35

$$

INZ033-034-041-042-049-050-058-059-180000-
EAST CENTRAL INDIANA

CITY           SKY/WX    TMP DP  RH WIND       PRES   REMARKS
MUNCIE         CLOUDY    41  36  82 S7        30.05R
RICHMOND +     CLOUDY    34  34 100 S7        30.08R WCI  28

$$

INZ060-061-067>069-081>083-085>088-180000-
SOUTHWEST INDIANA

CITY           SKY/WX    TMP DP  RH WIND       PRES   REMARKS
EVANSVILLE     LGT RAIN  43  41  93 S6        30.10R
HUNTINGBURG +  CLOUDY    43  38  82 S9        30.09F
WASHINGTON +   CLOUDY    44  35  71 S7        30.08S

$$

INZ062-063-066-070>080-084-089>092-180000-
SOUTH CENTRAL AND SOUTHEAST INDIANA

CITY           SKY/WX    TMP DP  RH WIND       PRES   REMARKS
BEDFORD +      CLOUDY    45  34  65 S5        30.08S
BLOOMINGTON    CLOUDY    45  35  68 S5        30.07S
MADISON *+     CLOUDY    43  32  65 S6        30.11S
NORTH VERNON + CLOUDY    43  32  65 S6        30.10R
SEYMOUR +      CLOUDY    45  32  61 S6        30.09R

$$




USA.gov is the U.S. government's official web portal to all federal, state and local government web resources and services.